[[{"header":{"parameterUnit":"m.s-1","parameterCategory":1,"la1":30.2991,"la2":30.254,"lo1":-89.0895,"lo2":-89.0444,"dy":0.0017,"dx":0.0017,"nx":28,"ny":28,"refTime":"2024-03-28T03:00:00:Z","depth":0,"parameterNumber":2,"parameterNumberName":"U-component_of_WINDS"},"data":[0,0,0,0,0,0,0,0,0,0,0,0,0,0,0,0,0,0,0,0,0,0,0,0,0,0,0,0,0,0,0,0,0,0,0,0,0,0,0,0,0,0,0,0,0,0,0,0,0,0,0,0,0,0,0,0,0,0,-3.2673,-3.2672,0,-3.2637,-3.2637,-3.2637,-3.2455,-3.2451,-3.2447,-3.2443,-3.2411,-3.2414,-3.2417,0,0,0,0,0,0,0,0,0,0,0,0,0,-3.2587,-3.259,-3.2673,-3.2672,-3.2672,-3.2637,-3.2637,-3.2637,-3.2456,-3.2451,-3.2446,-3.2441,-3.241,-3.2414,-3.2418,0,0,0,0,0,0,0,0,0,0,0,0,0,-3.2596,-3.2591,-3.2673,-3.2578,-3.2569,-3.2638,-3.2637,-3.2636,-3.2457,-3.2451,-3.2444,-3.2438,-3.2409,-3.2413,-3.2418,-3.2577,0,0,-3.2433,-3.2435,0,0,0,0,0,0,0,0,-3.2596,-3.2599,-3.2592,-3.2584,-3.2574,-3.2544,-3.2595,-3.2617,-3.2459,-3.25,-3.2442,-3.2435,-3.2461,-3.2461,-3.2469,-3.2576,-3.2575,-3.2433,-3.2436,-3.2438,-3.2439,0,0,0,0,0,0,0,-3.2595,-3.26,-3.2659,-3.2592,-3.2581,-3.2538,-3.2532,-3.2598,-3.2517,-3.2496,-3.2482,-3.248,-3.2455,-3.2465,-3.2467,-3.2574,-3.2433,-3.2437,-3.244,-3.2442,-3.281,-3.2816,0,0,0,0,0,0,-3.2607,-3.26,-3.266,-3.2658,-3.2569,-3.2545,-3.2538,-3.256,-3.2516,-3.2503,-3.2486,-3.2472,-3.246,-3.2461,-3.2465,-3.2648,-3.2438,-3.2443,-3.2445,-3.2803,-3.2811,-3.2818,0,0,0,0,0,0,-3.2606,-3.2615,-3.2661,-3.2625,-3.2628,-3.2553,-3.258,-3.2563,-3.2572,-3.2509,-3.2494,-3.2511,-3.2454,-3.2458,-3.255,-3.2644,-3.2445,-3.2449,-3.2795,-3.2805,-3.2815,-3.3016,0,0,0,0,0,0,-3.2605,-3.2615,-3.2674,-3.2628,-3.2631,-3.2747,-3.2585,-3.2567,-3.2581,-3.2562,-3.2528,-3.2516,-3.245,-3.2544,-3.2555,-3.2647,-3.2453,-3.2786,-3.2799,-3.2812,-3.3001,-3.3032,-3.3059,0,0,0,0,0,-3.2602,-3.2734,-3.2678,-3.2686,-3.2703,-3.2753,-3.2754,-3.2674,-3.2589,-3.2648,-3.2607,-3.2517,-3.2632,-3.2555,-3.2566,-3.2661,-3.278,-3.2796,-3.2811,-3.2988,-3.3026,-3.3058,0,0,0,0,0,0,-3.2795,-3.2726,-3.2664,-3.2784,-3.2775,-3.2722,-3.2794,-3.2717,-3.2734,-3.2717,-3.2618,-3.2611,-3.2719,-3.2698,-3.2614,-3.2812,-3.269,-3.2709,-3.2822,-3.2857,-3.2886,-3.2889,-3.2457,0,0,0,0,0,-3.2851,-3.2896,-3.2834,-3.2946,-3.2945,-3.2871,-3.289,-3.2828,-3.2816,-3.2812,-3.2778,-3.2771,-3.2805,-3.283,-3.2858,-3.2997,-3.2987,-3.3068,-3.3097,-3.3121,-3.3138,-3.321,-3.3245,-3.2869,-3.2869,-3.2869,0,0,-3.2968,-3.2936,-3.2971,-3.2984,-3.297,-3.302,-3.2869,-3.2929,-3.2965,-3.2822,-3.2906,-3.2881,-3.2866,-3.2983,-3.3032,-3.297,-3.324,-3.3141,-3.316,-3.3164,-3.323,-3.3265,-3.3297,-3.288,-3.2878,-3.2876,0,0,-3.3207,-3.3187,-3.3278,-3.3267,-3.3247,-3.3197,-3.3219,-3.3177,-3.3154,-3.3237,-3.313,-3.3173,-3.3234,-3.3228,-3.3233,-3.3469,-3.3387,-3.3481,-3.3633,-3.3704,-3.3734,-3.3759,-3.3844,-3.3875,-3.3498,-3.3498,-3.3499,0,-3.3356,-3.3425,-3.3335,-3.3401,-3.341,-3.328,-3.3372,-3.3366,-3.3358,-3.3368,-3.3297,-3.337,-3.3352,-3.3464,-3.3522,-3.353,-3.3553,-3.3484,-3.3736,-3.3761,-3.3784,-3.3863,-3.3895,-3.351,-3.3509,-3.3507,-3.3506,0,-3.3609,-3.3659,-3.3735,-3.3728,-3.3745,-3.3824,-3.3747,-3.3775,-3.3712,-3.367,-3.3756,-3.3729,-3.3749,-3.3771,-3.3711,-3.3876,-3.3837,-3.3754,-3.3629,-3.3833,-3.3906,-3.3936,-3.3527,-3.3522,-3.3519,-3.3516,0,0,-3.397,-3.391,-3.3939,-3.3934,-3.3903,-3.394,-3.4013,-3.4031,-3.4058,-3.4056,-3.4116,-3.417,-3.4091,-3.4098,-3.4036,-3.4098,-3.4287,-3.4006,-3.4004,-3.4059,-3.4467,-3.4531,-3.4567,-3.4232,-3.4237,-3.4241,-3.4468,0,-3.4198,-3.4317,-3.4238,-3.4371,-3.4416,-3.4294,-3.4357,-3.4346,-3.4308,-3.4342,-3.43,-3.434,-3.4234,-3.4236,-3.4293,-3.4252,-3.4367,-3.4234,-3.4287,-3.429,-3.4295,-3.4605,-3.4673,-3.4888,-3.4496,-3.4501,-3.4504,0,-3.4481,-3.4489,-3.4627,-3.4585,-3.4601,-3.466,-3.4669,-3.4703,-3.4687,-3.4655,-3.4662,-3.4584,-3.4653,-3.453,-3.4626,-3.4537,-3.4554,-3.4537,-3.4544,-3.4546,-3.441,-3.4617,-3.4955,-3.4988,-3.4548,-3.4545,-3.4542,0,-3.473,-3.4776,-3.4864,-3.4864,-3.4817,-3.4861,-3.4844,-3.4822,-3.4837,-3.4846,-3.4856,-3.4874,-3.4884,-3.49,-3.4829,-3.4746,-3.4934,-3.4805,-3.4911,-3.4913,-3.4956,-3.4955,-3.5303,-3.4967,-3.4967,-3.4966,-3.4966,0,-3.4994,-3.5083,-3.4975,-3.503,-3.5126,-3.5034,-3.5132,-3.5102,-3.5083,-3.513,-3.5026,-3.5073,-3.4976,-3.5013,-3.4959,-3.5046,-3.5052,-3.5029,-3.5013,-3.5038,-3.5041,-3.5048,-3.5032,-3.4975,-3.4973,-3.4971,-3.497,0,-3.5289,-3.522,-3.5308,-3.5256,-3.5245,-3.5319,-3.5274,-3.5323,-3.5278,-3.5339,-3.5348,-3.5278,-3.5316,-3.5247,-3.5277,-3.524,-3.5363,-3.5324,-3.5368,-3.5357,-3.5466,-3.5457,-3.5831,-3.5876,-3.5512,-3.5516,-3.5518,0,-3.5462,-3.5527,-3.5482,-3.5505,-3.5493,-3.5532,-3.5546,-3.5458,-3.5478,-3.5465,-3.5516,-3.5545,-3.5564,-3.5631,-3.5584,-3.5607,-3.5568,-3.5697,-3.5571,-3.5594,-3.557,-3.5567,-3.5573,-3.5724,-3.5728,-3.5732,-3.5735,0,-3.5776,-3.5739,-3.5763,-3.5776,-3.5796,-3.5802,-3.5801,-3.5827,-3.5733,-3.5761,-3.5798,-3.5813,-3.5842,-3.5873,-3.5885,-3.5868,-3.5787,-3.5775,-3.58,-3.5827,-3.585,-3.5839,-3.5439,-3.5767,-3.5764,-3.5761,-3.576,-3.5758,-3.6015,-3.6067,-3.6043,-3.6073,-3.6063,-3.6064,-3.6107,-3.6066,-3.6095,-3.6111,-3.6058,-3.6107,-3.609,-3.6096,-3.6088,-3.6127,-3.6069,-3.6106,-3.6116,-3.6126,-3.6144,-3.5843,-3.6128,-3.6127,-3.6126,-3.6125,-3.6125,0,-3.6324,-3.6302,-3.6331,-3.6331,-3.6356,-3.6275,-3.6269,-3.6296,-3.634,-3.6329,-3.6349,-3.6392,-3.6422,-3.6376,-3.6398,-3.6438,-3.6401,-3.6446,-3.6443,-3.644,-3.6194,-3.617,-3.6476,-3.6476,-3.6475,-3.6475,-3.6475,-3.6475,-3.6487,-3.6571,-3.6531,-3.6608,-3.6585,-3.6631,-3.6635,-3.6636,-3.6627,-3.6679,-3.6702,-3.6671,-3.6647,-3.6666,-3.669,-3.6676,-3.6689,-3.6748,-3.6721,-3.6492,-3.6458,-3.6425,-3.6402,-3.6751,-3.6752,-3.6964,-3.6966,-3.6968]},{"header":{"parameterUnit":"m.s-1","parameterCategory":1,"la1":30.2991,"la2":30.254,"lo1":-89.0895,"lo2":-89.0444,"dy":0.0017,"dx":0.0017,"nx":28,"ny":28,"refTime":"2024-03-28T03:00:00:Z","depth":0,"parameterNumber":3,"parameterNumberName":"V-component_of_WINDS"},"data":[0,0,0,0,0,0,0,0,0,0,0,0,0,0,0,0,0,0,0,0,0,0,0,0,0,0,0,0,0,0,0,0,0,0,0,0,0,0,0,0,0,0,0,0,0,0,0,0,0,0,0,0,0,0,0,0,0,0,-1.3306,-1.3308,0,-1.3412,-1.3413,-1.3414,-1.3463,-1.3463,-1.3463,-1.3463,-1.3569,-1.3572,-1.3575,0,0,0,0,0,0,0,0,0,0,0,0,0,-1.3144,-1.3147,-1.3306,-1.3308,-1.3309,-1.3412,-1.3413,-1.3415,-1.3463,-1.3463,-1.3463,-1.3463,-1.3568,-1.3571,-1.3575,0,0,0,0,0,0,0,0,0,0,0,0,0,-1.3228,-1.3148,-1.3306,-1.3346,-1.335,-1.3411,-1.3413,-1.3415,-1.3463,-1.3463,-1.3463,-1.3463,-1.3567,-1.3571,-1.3575,-1.3604,0,0,-1.3588,-1.359,0,0,0,0,0,0,0,0,-1.3224,-1.3234,-1.3339,-1.3343,-1.3348,-1.3424,-1.3395,-1.3478,-1.3464,-1.342,-1.3463,-1.3463,-1.3521,-1.3529,-1.3549,-1.3609,-1.3614,-1.3589,-1.3591,-1.3593,-1.3595,0,0,0,0,0,0,0,-1.3218,-1.323,-1.3348,-1.334,-1.3346,-1.3357,-1.3369,-1.3411,-1.347,-1.3424,-1.3428,-1.344,-1.3523,-1.3545,-1.3552,-1.3615,-1.3589,-1.3593,-1.3595,-1.3597,-1.3703,-1.3704,0,0,0,0,0,0,-1.3206,-1.3225,-1.3345,-1.3351,-1.3285,-1.336,-1.3374,-1.34,-1.347,-1.348,-1.344,-1.3442,-1.3537,-1.3547,-1.3556,-1.3594,-1.3593,-1.3597,-1.36,-1.3703,-1.3703,-1.3704,0,0,0,0,0,0,-1.3202,-1.3216,-1.334,-1.3289,-1.3306,-1.3363,-1.3393,-1.3402,-1.3424,-1.3482,-1.3492,-1.3451,-1.3538,-1.3549,-1.3592,-1.3598,-1.3599,-1.3603,-1.3703,-1.3703,-1.3704,-1.367,0,0,0,0,0,0,-1.3197,-1.3214,-1.3227,-1.3289,-1.3308,-1.3376,-1.3393,-1.3404,-1.3431,-1.3435,-1.3495,-1.3504,-1.3538,-1.3585,-1.3596,-1.3604,-1.3607,-1.3703,-1.3703,-1.3703,-1.3671,-1.3669,-1.3668,0,0,0,0,0,-1.3191,-1.3213,-1.3227,-1.3241,-1.3325,-1.3376,-1.3387,-1.3426,-1.3431,-1.3444,-1.3481,-1.3502,-1.3595,-1.3589,-1.3602,-1.3611,-1.3702,-1.3703,-1.3703,-1.3672,-1.367,-1.3668,0,0,0,0,0,0,-1.3149,-1.3222,-1.3238,-1.3281,-1.3322,-1.3384,-1.3401,-1.3423,-1.3463,-1.3464,-1.3511,-1.3524,-1.3562,-1.3591,-1.3582,-1.3642,-1.3651,-1.3654,-1.3622,-1.3621,-1.3619,-1.3612,-1.361,0,0,0,0,0,-1.3145,-1.3181,-1.3242,-1.3273,-1.3293,-1.3343,-1.3367,-1.3394,-1.3438,-1.3455,-1.3495,-1.3536,-1.3575,-1.3599,-1.3638,-1.3675,-1.3688,-1.3688,-1.3686,-1.3685,-1.3687,-1.3708,-1.3708,-1.3705,-1.3705,-1.3705,0,0,-1.3136,-1.318,-1.32,-1.3266,-1.3301,-1.3336,-1.3358,-1.3394,-1.3421,-1.346,-1.3503,-1.3534,-1.3583,-1.3622,-1.3642,-1.3647,-1.3691,-1.3685,-1.3684,-1.3687,-1.3709,-1.3709,-1.3709,-1.3706,-1.3706,-1.3706,0,0,-1.3139,-1.3176,-1.3206,-1.324,-1.3293,-1.3326,-1.3333,-1.3392,-1.3414,-1.3458,-1.3488,-1.352,-1.3585,-1.3619,-1.3644,-1.3658,-1.3679,-1.3669,-1.3662,-1.3682,-1.3682,-1.3682,-1.3687,-1.3689,-1.3671,-1.3671,-1.3671,0,-1.3121,-1.3177,-1.3218,-1.3254,-1.3281,-1.3319,-1.3349,-1.3381,-1.3443,-1.3461,-1.3466,-1.3549,-1.3584,-1.3632,-1.3636,-1.3655,-1.3664,-1.3663,-1.3679,-1.368,-1.3681,-1.3686,-1.3687,-1.3669,-1.367,-1.367,-1.367,0,-1.3152,-1.319,-1.3208,-1.3268,-1.3297,-1.333,-1.3376,-1.34,-1.3424,-1.3456,-1.3499,-1.3543,-1.3591,-1.3604,-1.3627,-1.3655,-1.3657,-1.367,-1.368,-1.3679,-1.3684,-1.3687,-1.3667,-1.3668,-1.3668,-1.3669,0,0,-1.3132,-1.3214,-1.322,-1.3248,-1.3308,-1.3338,-1.3371,-1.3419,-1.3439,-1.348,-1.3509,-1.3563,-1.3575,-1.3604,-1.3631,-1.3649,-1.3657,-1.366,-1.3661,-1.3658,-1.3689,-1.368,-1.3681,-1.3671,-1.3671,-1.3672,-1.3685,0,-1.3143,-1.3207,-1.3245,-1.3292,-1.3327,-1.3362,-1.3391,-1.3431,-1.3461,-1.3495,-1.3528,-1.3566,-1.3579,-1.3597,-1.3616,-1.3652,-1.3664,-1.3651,-1.3698,-1.3699,-1.3685,-1.3684,-1.3674,-1.3685,-1.3688,-1.3688,-1.3689,0,-1.3165,-1.3206,-1.3257,-1.3313,-1.3329,-1.3355,-1.3401,-1.3432,-1.3477,-1.3498,-1.353,-1.3557,-1.3593,-1.3599,-1.3649,-1.3639,-1.366,-1.368,-1.3682,-1.3688,-1.3694,-1.3691,-1.369,-1.3691,-1.3692,-1.3692,-1.3692,0,-1.3146,-1.3213,-1.3252,-1.3275,-1.3341,-1.3358,-1.3386,-1.3431,-1.3457,-1.3497,-1.3514,-1.3557,-1.3581,-1.3613,-1.3651,-1.3652,-1.3697,-1.3706,-1.3715,-1.3714,-1.3723,-1.3722,-1.3726,-1.3735,-1.3735,-1.3735,-1.3735,0,-1.3154,-1.3184,-1.3244,-1.3268,-1.3302,-1.3345,-1.3377,-1.3408,-1.3447,-1.3477,-1.351,-1.3538,-1.3586,-1.3618,-1.3648,-1.3684,-1.3695,-1.3712,-1.372,-1.371,-1.3707,-1.3724,-1.3725,-1.3736,-1.3736,-1.3736,-1.3736,0,-1.3139,-1.318,-1.3225,-1.3284,-1.33,-1.3322,-1.3372,-1.3396,-1.3428,-1.3465,-1.3476,-1.3526,-1.3566,-1.3607,-1.3661,-1.3681,-1.3717,-1.3727,-1.3702,-1.3706,-1.3713,-1.3712,-1.3728,-1.3732,-1.3738,-1.3738,-1.3738,0,-1.3142,-1.3166,-1.3227,-1.325,-1.3277,-1.3313,-1.334,-1.3382,-1.3409,-1.3461,-1.3479,-1.3522,-1.3558,-1.3621,-1.3661,-1.3702,-1.3714,-1.3717,-1.3721,-1.3709,-1.3714,-1.3713,-1.3715,-1.3715,-1.3715,-1.3715,-1.3715,0,-1.3143,-1.3162,-1.32,-1.3244,-1.3275,-1.3312,-1.335,-1.3367,-1.3416,-1.3444,-1.3486,-1.3514,-1.3569,-1.3611,-1.3657,-1.3686,-1.3708,-1.3713,-1.3718,-1.3708,-1.3692,-1.3701,-1.3698,-1.3713,-1.3713,-1.3713,-1.3713,-1.3713,-1.3137,-1.316,-1.3206,-1.3247,-1.328,-1.3314,-1.334,-1.3375,-1.3411,-1.346,-1.3482,-1.3524,-1.3568,-1.3632,-1.3659,-1.3692,-1.3699,-1.3705,-1.3706,-1.3707,-1.3705,-1.3686,-1.3701,-1.3701,-1.3701,-1.3701,-1.3701,0,-1.314,-1.3172,-1.3209,-1.3261,-1.3292,-1.3311,-1.3354,-1.3379,-1.3416,-1.3455,-1.349,-1.3538,-1.3578,-1.3622,-1.3665,-1.3683,-1.3694,-1.3692,-1.3692,-1.3698,-1.3697,-1.3689,-1.3682,-1.3682,-1.3682,-1.3682,-1.3682,-1.3682,-1.3146,-1.3185,-1.3209,-1.3265,-1.3296,-1.3338,-1.336,-1.3392,-1.3424,-1.3476,-1.351,-1.3538,-1.3578,-1.3624,-1.3662,-1.3674,-1.3688,-1.3684,-1.3698,-1.3697,-1.3698,-1.3699,-1.3692,-1.3686,-1.3686,-1.3697,-1.3697,-1.3697]}]]